Regional Weather Roundup
Issued by NWS Cleveland, OH

Home | Current Version | Previous Version | Graphics & Text | Print | Product List | Glossary On
Versions: 1 2 3 4 5 6 7 8 9 10 11 12 13 14 15 16 17 18 19 20 21 22 23 24 25 26 27 28 29 30 31 32 33 34 35 36 37 38 39 40 41 42 43 44 45 46 47 48 49 50
000
ASUS41 KCLE 222202
RWRCLE
OHIO REGIONAL WEATHER ROUNDUP
NATIONAL WEATHER SERVICE CLEVELAND, OH
600 PM EDT TUE JUL 22 2014

NOTE: "FAIR" INDICATES FEW OR NO CLOUDS BELOW 12,000 FEET WITH NO
SIGNIFICANT WEATHER AND/OR OBSTRUCTIONS TO VISIBILITY.

OHZ001>008-015>018-024>027-034-035-043-044-222300-
   NORTHWEST OHIO

CITY           SKY/WX    TMP DP  RH WIND       PRES   REMARKS
DEFIANCE       SUNNY     90  65  43 SW10      29.99F HX  92
FINDLAY        SUNNY     89  65  44 SW14      30.01F HX  91
TOLEDO EXPRESS SUNNY     89  65  44 SW12      29.99F HX  91
TOLEDO EXEC    SUNNY     90  64  42 SW15      29.99F HX  91
LIMA           SUNNY     88  64  44 SW9       30.03F
$$

OHZ009>014-019>023-028>033-038-089-222300-
   NORTHEAST OHIO

CITY           SKY/WX    TMP DP  RH WIND       PRES   REMARKS
CLE-HOPKINS    MOSUNNY   88  66  48 SW14      30.03F HX  90
CLE-LAKEFRONT  MOSUNNY   83  70  64 NE5       30.00F
CUY CO. ARPT   MOSUNNY   86  72  62 NW7       30.04S HX  92
LORAIN-ELYRIA  MOSUNNY   91  65  41 W13       30.03S HX  93
ASHTABULA      SUNNY     84  68  58 NW9       30.04R
AKRON-CANTON   MOSUNNY   88  67  49 SW8       30.05F HX  91
WOOSTER        MOSUNNY   86  69  56 SW9       30.06S HX  90
MANSFIELD      MOSUNNY   87  66  49 SW12      30.07S
YOUNGSTOWN     MOSUNNY   87  66  49 SW12      30.05S
$$

OHZ042-051>053-060>062-070>072-077>081-222300-
  SOUTHWEST OHIO

CITY           SKY/WX    TMP DP  RH WIND       PRES   REMARKS
CINC-COVINGTON MOSUNNY   89  66  46 W8        30.05F HX  91
CINC-LUNKEN    MOSUNNY   90  67  46 SW6       30.02F HX  93
HAMILTON       MOSUNNY   89  68  49 W7        30.04F HX  93
DAYTON         MOSUNNY   88  67  49 W10       30.06F HX  91
WRIGHT-PAT AFB SUNNY     88  67  49 W13       30.04F HX  91
DAYTON GENERAL SUNNY     88  66  48 W10       30.05S HX  90
WILMINGTON     SUNNY     88  67  49 S6        30.05F HX  91
$$

OHZ036-037-039>041-045>050-054>059-063>069-073>076-082>088-222300-
  CENTRAL AND SOUTHEAST OHIO

CITY           SKY/WX    TMP DP  RH WIND       PRES   REMARKS
COLUMBUS       MOSUNNY   90  66  45 SW12      30.04S HX  92
OSU AIRPORT    MOSUNNY   88  68  51 SW13      30.04F HX  91
BOLTON FIELD   MOSUNNY   88  73  62 SW8       30.05F HX  96
RICKENBACK AFB SUNNY     90  64  42 SW6       30.04S HX  91
NEWARK         SUNNY     86  69  56 SW9       30.04F HX  90
MARION         PTSUNNY   86  67  52 SW10      30.05S
LANCASTER      MOSUNNY   86  71  60 W6        30.05F HX  91
ZANESVILLE     PTSUNNY   86  69  56 SW8       30.05F HX  90
NEW PHILLY     MOSUNNY   86  71  60 S8        30.05F HX  91
$$


USA.gov is the U.S. government's official web portal to all federal, state and local government web resources and services.